Location: Sternwarte ZA, Rosenfeld-Brittheim
(48.2889°N, 8.6789°E)
Time: 01:25:50
(UTC+02:00)

ISS - Pass Details

Date: 15 July 2018
Orbit: 402 x 408 km, 51.6° (Epoch: 22 July)

Event Time Altitude Azimuth Distance (km) Brightness Sun altitude
Exits shadow 01:49:42 54° 85° (E) 504 -3.4 -20.0°
Drops below altitude 10° 01:52:21 10° 70° (ENE) 1,472 -0.7 -20.0°
Sets 01:54:27 0° 68° (ENE) 2,336 0.4 -20.0°
